Regional Weather Roundup
Issued by NWS

Home | Current Version | Previous Version | Text Only | Print | Product List | Glossary On
Versions: 1 2 3 4 5 6 7 8 9 10 11 12 13 14 15 16 17 18 19 20 21 22 23 24 25 26 27 28 29 30 31 32 33 34 35 36 37 38 39 40 41 42 43 44 45 46 47 48 49 50
000
ASUS43 KFSD 160210
RWRSD

WEATHER ROUNDUP FOR SOUTH DAKOTA
NATIONAL WEATHER SERVICE SIOUX FALLS SD
800 PM CST MON JAN 15 2018

NOTE: "FAIR" INDICATES FEW OR NO CLOUDS BELOW 12,000 FEET WITH NO
SIGNIFICANT WEATHER AND/OR OBSTRUCTIONS TO VISIBILITY.


SDZ001>005-009-010-012>017-160300-
NORTHWEST AND NORTH CENTRAL SOUTH DAKOTA

CITY           SKY/WX    TMP DP  RH WIND       PRES   REMARKS
BUFFALO          N/A    -13 -19  75 W7        30.62R WCI -29
FAITH            N/A    -12 -16  82 W10       30.74F WCI -31
MOBRIDGE       PTCLDY    -6 -15  65 NW13      30.77R WCI -25
$$

SDZ012>016-024>037-041>051-057-063-072>074-160300-
SOUTHWEST AND SOUTH CENTRAL SOUTH DAKOTA

CITY           SKY/WX    TMP DP  RH WIND       PRES   REMARKS
RAPID CTY ARPT CLEAR     -6 -12  75 N13       30.68S WCI -25
PIERRE         CLEAR     -3 -12  65 NW13      30.79R WCI -22
CUSTER         PTCLDY    -6 -11  79 SW3       30.43S
ELLSWORTH AFB  CLEAR     -4 -10  75 NW15      30.67S WCI -25
PHILIP         CLEAR     -7 -12  79 NW12      30.79R WCI -26
PINE RIDGE     CLEAR     -2  -9  72 NW5       30.68R WCI -12
SPEARFISH        N/A    -11 -17  77 SW5       30.63R WCI -23
WINNER         MOCLDY     1  -9  62 NW17      30.74R WCI -19
$$

SDZ004>011-016>023-039-040-160300-
NORTHEAST SOUTH DAKOTA

CITY           SKY/WX    TMP DP  RH WIND       PRES   REMARKS
ABERDEEN       CLOUDY    -5 -12  72 N22       30.78R WCI -30
WATERTOWN      CLOUDY    -7 -13  75 N22G31    30.63R WCI -32
BROOKINGS      CLOUDY    -8 -14  74 MISG        N/A
SISSETON         N/A     -5 -11  75 N23       30.74R WCI -30
$$

SDZ017-020-022-023-036>040-048>070-160300-
SOUTHEAST SOUTH DAKOTA

CITY           SKY/WX    TMP DP  RH WIND       PRES   REMARKS
SIOUX FALLS    CLOUDY    -5 -12  72 NW16G25   30.63R WCI -27
HURON          CLOUDY    -3 -11  68 N20G31    30.76R WCI -26
CHAMBERLAIN    CLEAR     -1 -10  65 NW18G24   30.76R WCI -23
MITCHELL       CLOUDY    -2 -10  69 N20G32    30.75R WCI -24
YANKTON        CLOUDY    -2  -9  72 NW22      30.69R WCI -26
$$

ABBREVIATIONS USED IN REMARKS
   TC - TEMPERATURE IN CELSIUS
  WCI - WIND CHILL INDEX
   HX - HEAT INDEX
  VSB - VISIBILITY




USA.gov is the U.S. government's official web portal to all federal, state and local government web resources and services.